Temp
-7 -7 -6 -6 -6 -6 -6 -7 -7 -7 -7 -7 -7 -6 -6 -7 -7 -6 -6 -6 -6 -6 -6 -6 -6 -6 -7 -7 -7 -7 -7 -7 -7 -7 -7 -6 -6 -6
-7 -7 -7 -6 -6 -6 -6 -6 -6 -7 -7 -6 -7 -7 -7 -6 -6 -7 -7 -7 -7 -7 -7 -7 -7 -6 -7 -7 -7 -7 -7 -7 -7 -7 -6 -6 -6 -6
-7 -7 -7 -7 -7 -6 -6 -6 -6 -6 -7 -7 -7 -7 -7 -7 -7 -7 -7 -7 -7 -7 -7 -7 -7 -7 -7 -7 -7 -7 -7 -7 -7 -7 -7 -7 -7 -6
-8 -8 -7 -7 -7 -7 -7 -7 -7 -6 -7 -7 -6 -7 -7 -7 -6 -6 -7 -7 -7 -7 -7 -7 -7 -7 -7 -7 -7 -7 -7 -7 -7 -7 -7 -7 -7 -7
-8 -7 -7 -7 -7 -7 -7 -7 -7 -7 -7 -7 -7 -6 -7 -7 -7 -7 -7 -7 -7 -7 -7 -7 -7 -7 -7 -7 -7 -7 -7 -7 -6 -6 -6 -6 -6 -6
-7 -7 -7 -7 -7 -7 -7 -7 -7 -7 -7 -7 -7 -7 -7 -7 -7 -7 -7 -7 -7 -7 -7 -7 -7 -7 -8 -8 -7 -7 -7 -7 -7 -7 -7 -7 -7 -7
-7 -7 -7 -8 -7 -7 -7 -7 -7 -7 -7 -7 -7 -7 -7 -7 -7 -7 -7 -7 -7 -8 -8 -7 -8 -8 -8 -7 -7 -7 -7 -7 -7 -7 -7 -6 -7 -6
-8 -8 -7 -7 -7 -7 -7 -7 -7 -7 -7 -7 -7 -7 -7 -7 -7 -7 -7 -8 -8 -8 -7 -7 -8 -8 -8 -7 -7 -7 -7 -7 -7 -7 -7 -7 -6 -7
-7 -8 -8 -7 -7 -7 -7 -7 -7 -7 -7 -7 -7 -7 -7 -7 -7 -7 -8 -8 -7 -8 -7 -8 -8 -8 -8 -8 -8 -7 -7 -8 -8 -8 -8 -8 -7 -8
-7 -7 -7 -7 -8 -7 -7 -7 -7 -7 -7 -7 -7 -7 -8 -7 -7 -7 -7 -8 -7 -7 -7 -8 -8 -8 -8 -8 -8 -8 -8 -7 -8 -8 -8 -8 -9 -9
-6 -7 -7 -7 -7 -7 -7 -7 -7 -7 -7 -7 -7 -7 -8 -7 -7 -7 -7 -7 -7 -8 -8 -8 -8 -8 -8 -8 -8 -8 -8 -8 -8 -9 -9 -9 -9 -9
-6 -6 -6 -6 -7 -7 -7 -7 -7 -7 -7 -7 -7 -7 -7 -7 -8 -8 -8 -8 -8 -8 -8 -7 -7 -8 -8 -8 -8 -8 -8 -8 -9 -9 -9 -9 -9 -11
-5 -5 -6 -6 -6 -6 -6 -6 -6 -7 -7 -7 -7 -7 -8 -7 -8 -8 -8 -6 -7 -7 -8 -7 -7 -8 -8 -8 -8 -9 -8 -8 -8 -9 -9 -9 -11 -13
-5 -5 -5 -5 -5 -5 -5 -6 -7 -7 -7 -7 -8 -8 -8 -8 -8 -8 -8 -7 -8 -8 -8 -7 -8 -8 -8 -9 -9 -9 -9 -9 -9 -9 -10 -10 -13 -14
-4 -4 -5 -5 -5 -5 -6 -6 -6 -7 -7 -7 -7 -8 -8 -9 -9 -8 -8 -8 -9 -9 -9 -8 -8 -9 -9 -9 -10 -10 -9 -9 -10 -10 -10 -14 -14 -13
-4 -4 -4 -5 -5 -5 -6 -7 -6 -7 -7 -7 -8 -8 -8 -8 -8 -9 -9 -9 -10 -11 -10 -10 -9 -8 -8 -9 -9 -9 -10 -10 -10 -11 -14 -13 -13 -13
-5 -5 -6 -6 -6 -6 -6 -7 -8 -8 -8 -8 -8 -8 -9 -9 -9 -9 -9 -9 -10 -9 -10 -10 -9 -8 -9 -9 -9 -11 -11 -11 -13 -13 -13 -13 -13 -12
-5 -5 -5 -5 -6 -7 -8 -8 -9 -9 -9 -8 -9 -9 -9 -9 -9 -9 -9 -9 -10 -10 -10 -10 -10 -10 -10 -10 -11 -11 -12 -14 -13 -13 -13 -13 -13 -13
-5 -5 -5 -6 -7 -8 -9 -9 -9 -9 -9 -9 -9 -9 -9 -9 -10 -10 -10 -10 -10 -10 -10 -10 -10 -10 -10 -10 -11 -13 -14 -13 -13 -13 -13 -13 -13 -13
-5 -5 -7 -7 -8 -8 -9 -9 -9 -9 -9 -10 -10 -10 -10 -11 -11 -10 -10 -10 -11 -11 -10 -10 -10 -10 -11 -13 -14 -14 -13 -13 -13 -13 -13 -13 -13 -13
-6 -7 -7 -8 -8 -9 -9 -10 -10 -10 -10 -10 -10 -11 -11 -11 -11 -11 -11 -11 -11 -11 -11 -11 -12 -13 -14 -14 -13 -13 -13 -13 -13 -13 -13 -13 -13 -14
-7 -8 -8 -8 -8 -9 -9 -9 -10 -10 -11 -11 -11 -12 -12 -12 -11 -11 -12 -11 -11 -11 -12 -13 -14 -14 -14 -13 -13 -13 -13 -13 -13 -14 -14 -14 -14 -15
-8 -8 -8 -9 -9 -10 -10 -10 -10 -11 -11 -11 -12 -12 -11 -12 -12 -12 -13 -15 -15 -15 -14 -14 -14 -13 -13 -14 -13 -13 -13 -13 -13 -13 -14 -14 -15 -15
Height
5926 5926 5926 5928 5927 5928 5928 5927 5926 5925 5925 5925 5925 5926 5925 5925 5924 5923 5922 5922 5921 5920 5918 5917 5916 5914 5913 5912 5911 5910 5909 5908 5907 5907 5906 5905 5904 5902
5922 5923 5924 5925 5925 5925 5926 5926 5925 5923 5922 5921 5922 5922 5922 5922 5921 5920 5920 5919 5918 5917 5916 5914 5912 5911 5910 5909 5908 5907 5906 5904 5903 5901 5900 5899 5898 5896
5916 5917 5919 5920 5921 5921 5921 5921 5921 5920 5919 5918 5917 5918 5917 5917 5916 5917 5916 5916 5915 5913 5911 5910 5909 5908 5907 5906 5904 5903 5901 5899 5898 5896 5894 5893 5891 5889
5906 5909 5911 5912 5915 5916 5916 5916 5916 5916 5916 5915 5914 5913 5913 5912 5911 5911 5911 5910 5910 5909 5907 5906 5905 5904 5903 5901 5900 5898 5896 5894 5892 5890 5888 5886 5884 5882
5897 5900 5902 5904 5906 5907 5908 5910 5910 5910 5910 5910 5908 5908 5908 5907 5906 5905 5905 5904 5904 5903 5902 5900 5900 5899 5898 5895 5893 5891 5889 5888 5886 5884 5881 5879 5876 5874
5889 5890 5892 5894 5896 5898 5899 5901 5901 5903 5903 5903 5902 5901 5901 5901 5900 5899 5898 5897 5897 5896 5895 5894 5894 5893 5891 5889 5886 5885 5883 5881 5879 5877 5874 5871 5867 5864
5880 5881 5882 5883 5885 5888 5890 5891 5892 5893 5895 5895 5896 5894 5893 5893 5892 5891 5890 5889 5890 5887 5886 5886 5886 5885 5883 5881 5879 5877 5874 5872 5870 5868 5866 5862 5858 5854
5870 5870 5871 5872 5873 5875 5877 5879 5881 5883 5884 5885 5886 5887 5885 5883 5883 5882 5882 5881 5881 5879 5877 5877 5876 5875 5874 5872 5870 5867 5865 5863 5860 5858 5856 5852 5849 5845
5860 5859 5858 5861 5863 5865 5866 5868 5870 5871 5873 5873 5876 5877 5875 5873 5871 5875 5873 5872 5871 5871 5868 5867 5866 5865 5864 5862 5859 5857 5856 5853 5851 5849 5846 5843 5839 5835
5850 5849 5849 5850 5851 5852 5853 5856 5858 5861 5862 5861 5864 5864 5863 5862 5862 5863 5863 5863 5862 5861 5857 5855 5855 5854 5852 5850 5849 5848 5845 5843 5841 5839 5836 5833 5830 5826
5841 5840 5839 5840 5841 5840 5841 5842 5844 5849 5849 5851 5851 5853 5853 5852 5851 5851 5853 5852 5850 5849 5846 5845 5844 5841 5840 5839 5838 5836 5833 5831 5830 5827 5825 5821 5818 5815
5833 5831 5830 5830 5829 5828 5828 5831 5830 5837 5835 5839 5841 5842 5842 5843 5842 5840 5841 5839 5839 5836 5833 5832 5830 5829 5826 5827 5824 5823 5818 5818 5817 5816 5813 5810 5807 5803
5824 5822 5820 5818 5818 5817 5818 5819 5823 5823 5826 5828 5829 5830 5831 5831 5828 5827 5827 5824 5822 5823 5822 5820 5817 5815 5817 5815 5813 5810 5809 5807 5805 5805 5802 5799 5795 5795
5812 5809 5807 5806 5805 5804 5805 5808 5808 5811 5814 5815 5816 5817 5816 5816 5810 5812 5813 5811 5812 5810 5808 5806 5806 5804 5806 5804 5804 5802 5798 5797 5795 5795 5792 5788 5787 5789
5803 5800 5798 5795 5794 5794 5794 5795 5795 5798 5802 5804 5804 5804 5803 5802 5799 5803 5801 5798 5798 5797 5798 5795 5794 5796 5797 5795 5793 5793 5791 5788 5785 5783 5782 5781 5783 5784
5790 5788 5786 5784 5783 5782 5782 5783 5784 5787 5789 5792 5793 5792 5793 5794 5792 5793 5790 5791 5791 5794 5793 5795 5791 5786 5786 5785 5785 5782 5780 5779 5776 5773 5774 5777 5777 5777
5778 5775 5772 5770 5769 5769 5769 5769 5771 5774 5776 5780 5782 5783 5784 5784 5782 5785 5785 5785 5786 5787 5787 5786 5784 5780 5776 5777 5776 5774 5772 5770 5769 5770 5771 5772 5771 5769
5769 5766 5763 5761 5758 5755 5754 5756 5759 5762 5766 5769 5771 5773 5773 5774 5774 5774 5775 5775 5776 5777 5778 5778 5777 5775 5774 5772 5769 5767 5765 5765 5765 5766 5766 5765 5763 5760
5761 5757 5753 5750 5748 5745 5745 5747 5750 5753 5756 5758 5760 5762 5763 5763 5764 5764 5764 5764 5765 5767 5768 5768 5768 5767 5764 5761 5759 5759 5761 5762 5761 5760 5760 5757 5754 5750
5752 5748 5746 5743 5740 5739 5740 5741 5743 5745 5747 5749 5750 5752 5753 5754 5754 5754 5754 5754 5755 5757 5758 5758 5757 5755 5753 5754 5756 5758 5759 5758 5756 5754 5752 5748 5744 5740
5746 5744 5741 5739 5738 5737 5736 5732 5734 5737 5740 5742 5743 5744 5745 5746 5746 5746 5746 5746 5746 5747 5747 5747 5746 5747 5749 5751 5753 5753 5753 5752 5750 5747 5743 5740 5734 5728
5744 5741 5739 5736 5734 5733 5733 5733 5733 5734 5735 5737 5736 5736 5738 5738 5739 5739 5738 5738 5738 5738 5738 5740 5744 5745 5747 5748 5748 5748 5747 5745 5741 5738 5734 5729 5724 5718
5744 5741 5739 5736 5732 5731 5731 5731 5731 5731 5731 5732 5732 5733 5734 5735 5735 5733 5731 5732 5734 5736 5737 5741 5741 5742 5743 5743 5743 5742 5740 5737 5734 5730 5725 5720 5714 5708
Wind_Speed
23 21 20 19 18 16 14 11 11 12 13 14 13 12 11 11 11 11 12 10 11 12 13 15 16 13 13 12 11 11 11 11 11 12 13 14 15 17
27 26 25 24 22 21 20 18 16 14 15 15 16 15 15 15 14 14 14 14 15 17 17 14 13 11 11 13 13 14 15 15 16 18 19 20 22 23
27 30 30 29 26 24 24 23 21 20 17 18 17 17 17 17 17 17 19 17 17 20 14 17 13 14 15 17 17 18 18 20 21 21 23 25 25 26
28 29 31 34 31 29 27 26 26 24 23 21 20 19 19 20 20 20 20 19 19 19 19 16 17 18 19 20 21 22 23 23 23 23 24 25 26 27
32 34 33 35 36 35 34 32 32 30 27 25 25 21 20 21 22 23 22 21 22 22 21 22 23 23 24 24 24 25 26 26 27 26 26 27 30 32
34 34 35 38 38 38 37 37 37 36 34 30 29 27 24 23 24 27 26 24 25 25 27 26 27 27 25 26 29 28 28 29 29 30 31 30 33 36
33 36 37 38 41 43 41 39 39 37 36 35 33 32 30 28 29 30 30 30 28 30 31 31 30 29 29 30 32 33 33 33 33 34 34 37 37 35
27 34 41 41 38 41 43 43 43 41 40 38 38 36 36 36 35 35 34 33 33 34 36 36 35 35 35 35 37 38 38 35 38 35 36 38 38 37
37 34 38 41 43 42 42 45 44 43 43 44 41 40 41 42 43 38 39 39 38 38 41 40 39 40 39 41 42 42 40 38 37 37 40 39 37 36
31 33 33 34 39 43 43 45 46 43 41 43 41 41 43 45 44 43 43 42 41 42 45 46 45 42 43 44 45 43 44 43 40 40 40 39 40 39
33 33 34 35 35 36 41 41 47 40 40 42 42 40 41 43 46 46 45 45 45 46 50 51 49 48 47 47 46 47 47 47 49 44 42 43 43 39
32 34 36 35 37 40 41 40 32 41 43 43 41 44 43 44 45 46 45 46 48 50 47 44 47 50 49 46 44 46 42 43 47 46 49 49 46 31
32 31 33 38 39 40 41 41 39 43 46 46 45 42 42 43 46 49 48 45 54 57 54 50 49 48 46 46 47 50 48 51 43 48 52 50 39 20
34 35 37 38 39 41 42 42 44 43 43 43 45 44 45 45 58 53 48 42 49 35 31 33 40 33 42 31 36 38 48 44 46 50 53 40 16 17
34 37 38 41 43 44 44 46 48 45 43 44 46 46 49 49 54 41 42 36 28 29 34 27 37 25 24 23 30 30 35 42 48 50 41 15 15 19
38 39 40 43 45 46 46 48 47 47 47 44 43 44 42 43 41 49 38 31 27 30 29 28 36 44 42 37 33 30 32 38 39 27 11 10 23 30
32 30 31 31 37 48 50 48 47 45 45 43 42 43 41 44 40 43 40 35 34 33 31 35 32 48 46 38 31 32 42 33 9 8 16 24 29 32
32 29 29 33 34 36 39 43 42 41 39 38 37 37 38 39 40 39 39 36 33 32 35 31 29 25 29 33 32 36 22 10 10 17 23 26 30 33
29 28 27 26 22 19 24 30 29 27 29 32 34 35 36 37 37 36 35 33 32 31 30 33 32 31 35 35 29 14 14 17 19 22 25 30 34 37
24 21 16 17 18 16 19 24 28 30 31 31 33 33 34 34 33 34 32 33 30 30 30 28 32 37 26 15 10 13 17 19 21 26 31 35 37 40
14 12 10 11 10 6 9 18 22 24 24 27 28 31 32 29 27 27 27 28 29 30 39 34 17 14 11 10 14 17 18 23 27 30 33 36 40 43
12 10 9 10 7 6 10 18 7 14 20 16 21 24 25 23 22 24 26 29 28 19 13 14 12 11 13 14 17 20 23 27 30 32 34 39 43 44
17 16 13 8 7 8 6 9 12 9 11 11 12 15 21 26 29 30 11 8 10 9 8 11 10 11 17 18 21 24 28 31 33 34 38 42 43 45
Wind_Direction
244 244 245 249 250 248 256 257 266 283 291 291 289 288 285 282 286 292 300 310 303 302 296 291 290 289 291 290 291 292 294 295 296 293 291 287 284 281
248 249 249 251 250 254 260 266 266 268 275 284 285 288 286 282 281 280 279 295 291 296 296 280 277 289 295 293 295 295 291 288 286 286 284 282 280 281
259 251 252 252 252 253 256 263 267 268 269 275 278 279 284 283 283 281 278 281 284 281 295 274 280 281 285 289 290 291 290 289 288 289 290 290 288 287
256 260 257 253 252 254 257 262 266 269 271 273 274 276 277 279 282 282 281 284 281 285 284 286 275 283 288 289 287 292 292 291 289 290 291 292 290 289
260 258 256 256 252 250 252 255 261 266 268 269 271 269 271 273 277 280 279 279 279 283 277 285 282 284 286 285 285 287 287 289 290 292 292 292 289 286
259 262 258 256 258 255 251 252 256 260 264 267 269 269 266 267 271 273 276 276 274 273 275 279 280 281 282 284 286 287 289 288 288 289 294 299 298 291
264 261 259 258 255 257 259 259 258 259 262 264 265 267 268 265 265 267 268 271 274 272 274 275 278 281 285 285 286 285 289 290 289 289 293 295 300 298
271 273 260 257 255 257 258 259 258 258 260 261 262 265 267 266 264 265 269 271 271 272 273 277 280 280 283 283 283 285 288 288 289 287 293 295 299 298
274 273 263 258 258 258 261 263 262 260 259 260 261 262 262 264 264 264 267 270 273 275 277 277 277 279 280 280 281 283 282 288 287 290 294 294 296 294
272 269 267 269 265 258 263 265 263 260 259 261 261 260 261 261 264 265 265 268 271 272 274 274 275 276 278 279 281 283 281 291 291 293 291 291 292 293
267 266 267 264 266 259 259 273 264 255 258 259 261 260 263 264 265 266 268 269 271 272 271 273 273 272 275 281 282 279 281 278 284 288 289 290 295 288
272 267 264 263 260 259 260 260 260 250 254 260 261 265 265 270 268 270 269 268 269 268 270 270 272 273 275 282 277 282 265 272 284 286 288 286 292 280
282 274 264 261 260 258 257 256 252 250 251 257 262 267 263 268 269 265 266 280 275 273 275 275 276 268 275 279 276 277 278 277 271 282 282 288 284 263
275 271 269 265 262 262 262 258 256 255 257 260 262 263 263 270 263 268 261 270 269 276 285 272 276 261 270 279 277 280 290 274 260 285 280 282 247 284
272 270 268 267 265 261 261 260 260 260 259 260 263 259 262 267 276 278 270 262 274 300 298 298 257 265 277 299 321 299 281 277 276 281 279 257 274 273
283 275 266 263 263 263 260 257 258 256 254 255 260 264 267 267 278 286 280 290 302 297 295 293 283 265 282 271 310 294 284 289 281 257 247 257 263 283
294 289 284 281 272 263 259 255 255 257 258 258 259 263 266 262 277 275 282 284 283 284 286 282 288 267 275 282 292 282 284 282 243 236 256 269 286 291
296 290 281 287 279 276 260 255 253 255 258 263 266 268 269 269 272 277 282 285 282 280 276 288 279 286 287 287 282 274 264 212 235 258 281 288 294 297
301 302 296 292 300 297 269 251 251 251 255 260 264 267 270 274 276 278 281 277 275 272 278 282 275 273 282 280 264 238 218 251 274 285 290 294 295 297
304 305 307 302 296 278 258 250 249 253 256 259 263 265 267 271 276 278 278 276 273 274 274 277 271 276 273 241 213 243 268 286 290 291 292 297 300 303
318 322 315 322 323 293 271 252 238 246 249 257 260 266 271 276 279 275 277 275 265 272 277 272 241 205 204 240 270 280 288 290 291 292 296 303 308 310
336 318 318 334 344 302 294 236 297 257 256 267 276 275 269 269 262 269 269 270 268 254 225 190 197 238 266 274 280 283 287 293 295 300 306 310 311 312
26 35 42 34 308 304 285 269 253 261 286 288 275 273 277 271 276 276 196 167 179 197 218 243 252 263 280 280 281 287 294 298 303 306 311 311 313 313